Lid_Strength_Index
9 8 9 9 9 9 10 10 10 9 9 9 9 9 10 10 11 11 11 12 12 12 11 11 11 11 12 11 11 12 12 12 14 12 11 11 11 11 10 9 9 9 9
8 8 9 9 9 10 10 10 9 10 9 9 9 9 9 10 11 11 12 12 12 12 12 12 12 11 12 12 12 13 12 12 13 14 12 12 11 10 10 10 9 8 8
8 9 9 9 10 10 10 10 9 9 9 9 9 9 10 10 11 11 12 12 12 12 12 12 12 12 13 12 13 13 12 12 12 13 13 11 11 10 10 9 9 8 7
8 9 9 10 10 10 10 10 10 9 9 9 9 9 10 11 11 11 12 13 13 12 12 12 12 12 13 13 12 13 12 13 13 13 13 12 11 10 10 10 10 8 8
8 9 9 9 10 10 10 10 10 9 9 9 10 10 11 11 11 12 12 13 13 13 13 12 12 11 11 11 12 13 13 13 13 13 13 12 12 12 11 9 9 8 8
8 9 9 9 10 10 10 10 10 10 10 10 10 10 11 11 10 10 12 13 13 13 13 13 13 12 12 12 12 11 11 12 13 13 12 13 12 11 9 9 9 9 10
8 8 8 9 10 10 10 11 11 11 11 11 11 11 12 12 10 10 11 13 13 13 13 13 13 12 12 13 11 11 11 10 10 12 12 12 11 10 9 10 9 9 9
8 8 8 9 10 10 11 11 11 11 11 11 11 11 12 11 10 10 11 13 13 13 13 13 13 13 13 12 12 12 12 11 11 11 11 10 9 8 8 9 9 8 8
8 8 8 9 10 11 12 13 12 11 12 12 11 12 12 12 10 10 11 13 13 13 13 13 12 13 12 11 12 13 12 11 10 9 9 8 8 8 8 8 10 10 11
8 8 8 9 9 10 11 12 12 11 11 12 12 12 11 12 11 10 11 12 13 13 13 13 12 12 11 12 12 12 13 12 11 10 10 9 8 8 8 8 9 11 11
8 8 8 9 9 10 11 12 12 12 12 12 12 12 12 12 12 10 10 12 13 14 14 14 13 12 11 11 11 12 12 11 11 10 10 10 9 9 9 8 8 9 10
8 8 9 9 9 10 11 12 12 12 12 13 13 13 13 13 12 12 11 11 11 13 14 14 13 11 11 11 11 11 11 11 11 11 11 11 11 10 9 9 8 8 8
8 9 9 10 10 11 12 12 13 13 13 13 13 14 14 13 14 12 12 12 12 14 13 13 12 12 12 13 12 11 11 11 11 11 11 11 10 9 9 8 8 8 7
8 9 10 10 11 11 12 12 12 13 14 14 14 14 15 14 14 14 14 14 14 14 14 13 14 14 12 12 12 11 11 11 11 11 11 10 9 9 10 9 9 8 8
8 9 10 10 10 12 12 12 12 12 12 13 14 14 15 15 14 13 13 13 14 14 14 13 13 14 13 13 12 11 11 11 11 10 10 10 10 10 10 9 8 9 10
9 10 10 11 11 12 12 14 12 11 11 11 12 12 13 12 11 11 11 11 12 12 14 13 14 13 14 13 12 12 11 11 11 10 10 10 11 10 10 9 9 10 11
8 9 11 11 12 12 13 13 13 14 11 11 11 11 11 12 11 11 11 11 12 13 14 14 13 13 13 12 12 12 12 11 10 10 11 11 11 10 10 9 10 10 11
8 10 10 11 11 12 12 12 12 12 13 14 12 11 11 11 11 11 11 12 14 14 14 14 13 13 13 12 12 12 11 11 10 11 11 11 11 11 10 9 10 11 11
9 10 10 11 11 11 12 12 12 13 13 14 14 14 13 11 11 12 12 14 15 15 14 14 13 13 12 12 11 11 11 11 11 11 11 12 11 11 11 9 10 11 11
9 10 11 11 12 12 12 12 13 13 13 14 14 14 14 15 17 18 16 15 15 15 14 13 13 12 12 12 11 11 11 11 11 11 11 11 11 11 11 10 10 11 11
9 11 11 11 11 11 12 12 12 13 13 14 14 15 15 14 15 16 15 16 16 15 15 13 12 12 12 12 11 11 11 11 11 11 11 12 12 12 11 9 10 10 11
10 11 11 11 11 12 12 12 12 13 13 14 15 16 16 14 15 15 16 16 15 15 14 13 12 12 12 12 11 12 12 11 11 12 12 12 12 11 10 9 10 10 11
10 10 11 11 11 13 12 12 13 13 14 14 14 15 15 15 15 16 16 17 16 16 15 14 12 12 11 11 11 11 11 11 11 12 12 12 12 11 10 10 10 10 11
10 10 11 11 11 12 12 13 13 14 14 14 15 15 15 14 16 15 18 19 18 18 17 15 12 12 12 11 11 11 11 11 11 11 11 11 11 10 9 10 11 11 12
10 10 10 11 11 12 13 13 13 14 14 14 15 15 16 16 17 18 19 20 20 20 17 15 12 12 12 12 11 11 11 11 11 11 10 10 10 10 10 10 11 11 11
11 11 11 11 11 12 12 13 13 14 14 14 14 14 16 16 17 19 19 19 19 19 17 15 12 12 12 11 11 11 11 11 11 11 9 9 10 10 10 11 11 11 10